User: anonymous   Login
Location: Limerick
(52.6800°N, 8.6400°W)
Time: 10:54:58
(UTC+01:00)
Language:

Sapphire - Orbit

View from above orbital plane
View from above orbital plane
View from above satellite
View from above satellite

Ground track
Ground track

The orbit data is extracted from the following two-line orbital elements,

1 26932U 01043D   16177.78618242 -.00000039  00000-0  16823-4 0  9997
2 26932  67.0570 292.5649 0008106 253.0015 107.0198 14.30215711769404
Epoch (UTC): 25 June 2016 18:52:06
Eccentricity: 0.0008106
inclination: 67.0570°
perigee height: 785 km
apogee height: 797 km
right ascension of ascending node: 292.5649°
argument of perigee: 253.0015°
revolutions per day: 14.30215711
mean anomaly at epoch: 107.0198°
orbit number at epoch: 76940

The dashed part of the orbit path shows where the satellite is in the earth's shadow,  

DLR